This is the latest recevied weather packets stored in our database for station/object N7TUG-8. If no packets are shown the sender has not sent any weather packets the latest 10 day(s).
| Time | Temp. | Humidity | Pressure | Rain* | Wind** | Luminosity | Snow |
|---|---|---|---|---|---|---|---|
| 1777861667 | 24.44° C | 47% | 1008.3 hPa | 0 mm | 0.89 m/s, 321° | - | - |
| 1777861475 | 24.44° C | 47% | 1008.4 hPa | 0 mm | 1.34 m/s, 313° | - | - |
| 1777860786 | 24.44° C | 48% | 1008.4 hPa | 0 mm | 1.79 m/s, 308° | - | - |
| 1777860601 | 24.44° C | 48% | 1008.5 hPa | 0 mm | 1.79 m/s, 299° | - | - |
| 1777859755 | 24.44° C | 48% | 1008.5 hPa | 0 mm | 3.13 m/s, 303° | - | - |
| 1777859187 | 24.44° C | 49% | 1008.6 hPa | 0 mm | 2.24 m/s, 303° | - | - |
| 1777858886 | 23.89° C | 48% | 1008.7 hPa | 0 mm | 2.68 m/s, 308° | - | - |
| 1777858427 | 23.89° C | 48% | 1008.8 hPa | 0 mm | 2.68 m/s, 305° | - | - |
| 1777857935 | 24.44° C | 47% | 1008.8 hPa | 0 mm | 2.68 m/s, 307° | - | - |
| 1777857587 | 24.44° C | 48% | 1008.9 hPa | 0 mm | 2.68 m/s, 311° | - | - |
| 1777857066 | 24.44° C | 48% | 1008.9 hPa | 0 mm | 2.68 m/s, 306° | - | - |
| 1777856716 | 23.89° C | 49% | 1009 hPa | 0 mm | 2.24 m/s, 323° | - | - |
| 1777856241 | 24.44° C | 49% | 1009 hPa | 0 mm | 2.24 m/s, 311° | - | - |
| 1777855923 | 24.44° C | 49% | 1009.1 hPa | 0 mm | 2.24 m/s, 313° | - | - |
| 1777855431 | 24.44° C | 50% | 1009.1 hPa | 0 mm | 2.68 m/s, 314° | - | - |
| 1777854511 | 24.44° C | 52% | 1009.3 hPa | 0 mm | 2.68 m/s, 312° | - | - |
| 1777854272 | 24.44° C | 53% | 1009.3 hPa | 0 mm | 3.13 m/s, 314° | - | - |
| 1777853606 | 24.44° C | 53% | 1009.3 hPa | 0 mm | 2.68 m/s, 309° | - | - |
| 1777853448 | 24.44° C | 53% | 1009.3 hPa | 0 mm | 2.68 m/s, 309° | - | - |
| 1777852701 | 24.44° C | 53% | 1009.5 hPa | 0 mm | 1.79 m/s, 305° | - | - |
| 1777852642 | 24.44° C | 53% | 1009.5 hPa | 0 mm | 1.79 m/s, 305° | - | - |
| 1777851871 | 24.44° C | 54% | 1009.6 hPa | 0 mm | 1.34 m/s, 332° | - | - |
| 1777850951 | 24.44° C | 54% | 1009.8 hPa | 0 mm | 2.24 m/s, 324° | - | - |
| 1777850142 | 24.44° C | 54% | 1009.9 hPa | 0 mm | 1.34 m/s, 334° | - | - |
| 1777850011 | 24.44° C | 53% | 1010.1 hPa | 0 mm | 2.24 m/s, 316° | - | - |
* Rain latest hour (hover to see other rain measurements)
** Current wind speed in m/s (hover to see current wind gust speed)